Wind_Speed
35 35 35 34 33 33 33 33 32 32 32 32 32 31 32 32 31 31 31 31 31 31 31 32 31 30 30 30 31 29 29 28 28 27 27 26 25 25 25 24 23 22 22
38 37 37 37 36 35 34 34 34 34 34 34 33 33 33 33 33 33 33 33 33 33 33 33 34 33 32 32 32 32 31 31 30 29 29 28 27 27 26 26 26 25 24
40 39 39 39 38 37 36 36 36 36 36 36 35 35 35 35 35 35 35 35 35 35 35 35 35 36 36 34 34 33 33 33 33 32 31 30 30 29 29 28 28 27 27
41 40 40 40 40 40 39 39 38 38 37 37 38 37 37 37 37 37 38 37 37 37 37 37 37 37 37 37 37 36 35 35 34 34 33 33 32 32 31 30 30 29 29
42 42 42 42 42 42 42 42 41 40 40 40 40 39 40 40 39 40 39 40 39 39 39 39 39 39 39 39 38 38 38 37 36 36 35 35 35 34 34 33 32 31 31
44 44 44 44 44 44 44 44 44 43 42 42 42 42 42 42 42 42 41 41 41 41 41 41 41 40 40 40 40 40 40 40 39 38 37 36 36 36 36 35 34 34 33
46 46 46 46 46 45 45 45 45 45 44 44 44 44 44 44 44 44 43 43 43 43 43 43 43 42 41 41 41 42 41 41 41 40 40 39 38 38 37 37 36 35 34
49 49 49 49 48 48 47 47 47 46 46 46 46 45 45 46 46 45 46 46 46 46 45 45 44 44 44 44 44 43 42 43 42 42 42 42 40 39 39 38 37 37 38
50 51 51 50 50 51 50 49 49 48 48 48 48 47 47 46 46 47 47 47 48 49 48 48 48 47 46 46 46 46 45 45 44 44 44 43 43 42 41 41 40 39 39
51 51 51 51 51 51 51 51 51 50 50 50 50 49 49 49 48 48 48 49 49 50 51 51 50 50 50 49 48 48 48 47 46 46 45 45 45 45 44 43 43 43 42
52 53 53 53 52 52 52 51 51 51 51 51 51 51 51 52 52 51 51 51 51 52 52 52 52 52 52 52 51 50 49 49 48 48 47 47 47 46 45 45 45 44 44
53 54 54 54 54 54 53 53 53 53 52 52 53 53 53 53 53 53 54 53 53 53 54 54 54 54 54 53 53 52 52 51 50 50 49 49 48 47 47 47 47 46 46
54 54 54 54 55 55 54 54 55 54 54 54 53 54 54 54 55 55 55 54 54 55 55 55 55 55 55 55 54 54 54 53 53 52 51 50 50 49 49 49 48 48 47
55 55 56 56 56 56 56 56 56 56 56 55 55 55 55 55 56 56 56 56 55 56 56 56 56 57 57 57 57 56 55 55 55 54 53 52 52 51 51 51 50 49 49
55 56 56 57 57 56 56 56 57 57 56 56 56 56 57 57 57 57 56 57 57 57 57 57 57 58 58 58 59 58 57 56 56 56 56 55 53 53 53 53 52 51 51
56 56 57 57 57 57 56 57 57 58 58 57 57 57 57 58 58 57 57 57 57 57 57 57 59 59 59 59 60 60 59 58 58 57 58 57 56 55 56 54 54 54 53
57 57 57 57 58 58 58 58 58 58 58 58 58 58 57 57 57 57 57 57 57 57 57 57 58 59 60 60 60 61 60 60 60 59 59 60 59 58 57 56 57 57 56
58 58 58 58 58 59 59 59 59 59 59 58 59 59 59 58 58 57 57 57 57 57 57 57 57 58 59 60 61 61 61 61 61 61 61 62 62 61 60 58 58 59 59
57 58 58 59 59 60 60 60 60 59 59 60 60 60 59 59 59 58 58 58 58 58 58 58 58 59 59 60 61 62 62 63 62 62 62 63 63 63 62 61 61 61 61
57 57 58 59 59 59 60 60 60 60 59 60 60 60 60 60 59 59 59 59 58 59 59 60 59 60 60 61 62 63 63 63 63 63 64 64 64 64 63 63 63 63 63
57 57 57 58 58 58 58 59 59 59 59 59 60 59 59 59 59 59 59 59 59 59 59 60 60 60 60 60 62 63 63 63 63 62 63 64 65 65 65 65 65 65 65
56 56 56 56 56 56 57 57 57 57 57 57 57 57 57 57 58 59 59 59 59 59 59 59 59 60 60 60 61 62 63 63 62 62 63 64 66 66 66 66 66 66 65
55 55 55 55 54 54 55 55 55 55 54 54 54 55 55 55 56 57 58 59 59 59 59 60 60 59 60 60 61 61 62 62 62 62 63 64 65 66 66 66 66 67 67
54 53 53 54 54 54 54 55 55 54 53 53 53 53 53 54 55 55 56 57 58 59 60 60 59 59 59 59 60 60 61 61 61 61 62 63 64 65 64 65 66 66 66
52 52 52 52 53 53 53 54 54 53 52 52 52 51 52 52 53 54 55 56 57 57 58 59 59 59 59 59 59 60 60 59 59 59 61 63 63 63 62 63 64 65 66
51 51 50 50 50 50 50 50 51 51 51 51 51 51 51 52 52 53 55 56 56 56 56 57 58 58 58 58 59 59 58 58 58 57 59 60 60 61 60 61 63 64 65
Wind_Direction
255 255 255 256 256 255 256 257 257 257 256 256 257 257 256 255 254 254 254 255 255 254 253 252 252 252 252 253 253 253 255 257 258 260 261 261 262 262 262 261 263 265 266
255 255 256 256 255 255 256 257 257 257 256 256 256 256 256 255 254 254 254 255 255 256 255 253 253 253 253 253 254 255 256 256 257 259 259 259 259 261 262 261 262 263 265
255 255 255 254 255 255 256 256 257 257 257 257 256 256 256 256 256 255 255 255 255 256 256 255 254 254 254 255 256 256 256 256 257 258 258 259 259 260 261 262 262 262 263
254 254 255 255 255 255 255 256 257 257 258 258 257 256 257 257 256 256 255 255 256 256 257 256 255 255 256 256 256 256 256 257 257 257 257 258 259 259 261 261 261 262 263
255 254 254 254 255 255 255 256 256 257 257 258 257 257 257 257 256 256 256 256 256 257 257 258 257 256 257 258 258 258 258 259 258 258 258 258 258 259 259 260 260 261 262
255 255 254 255 255 256 256 256 256 257 258 258 258 258 257 257 257 256 257 257 257 258 258 258 258 257 257 257 258 258 258 258 259 259 259 258 258 258 258 259 260 260 260
254 255 255 256 256 256 256 256 257 257 258 258 258 259 258 258 257 257 257 257 258 258 258 258 258 258 258 258 258 258 258 258 258 259 259 259 258 258 257 257 258 259 260
254 254 255 255 255 256 256 257 257 258 258 258 259 259 258 258 257 257 257 258 258 258 258 258 258 258 259 259 258 258 257 257 257 258 259 258 257 256 257 257 258 258 259
255 255 255 256 257 256 256 257 257 258 259 259 260 260 259 257 257 257 257 258 258 258 258 258 259 258 258 259 259 258 257 257 257 257 258 258 258 258 257 258 258 258 259
255 256 256 257 258 258 257 257 258 258 259 260 260 260 259 259 258 258 257 258 258 258 258 258 258 259 259 259 259 258 258 258 257 256 256 257 258 258 258 258 258 259 259
256 256 257 257 258 258 258 257 258 258 259 260 260 260 260 260 260 260 259 258 258 257 258 258 257 258 258 258 258 258 259 259 258 256 255 256 257 257 257 258 259 259 260
257 257 257 257 257 258 258 257 258 258 260 261 261 261 261 261 261 262 261 259 259 258 257 257 257 257 257 257 257 258 259 258 257 256 255 256 256 257 257 257 258 259 261
258 257 257 258 258 257 258 258 258 259 259 261 262 262 262 262 262 262 262 261 260 259 258 257 257 257 257 256 256 258 259 258 257 256 255 255 256 257 257 258 258 259 260
258 257 257 257 258 258 258 258 259 259 260 261 262 262 262 263 263 263 263 262 261 259 258 257 257 258 257 256 257 257 258 258 257 256 255 255 256 257 257 257 258 259 260
258 258 258 258 258 258 258 258 258 259 260 261 262 262 262 262 263 264 264 263 262 259 257 257 257 257 257 256 256 257 258 258 256 255 255 255 256 257 257 257 258 259 260
259 259 258 258 258 258 258 259 259 259 260 261 262 262 263 263 264 264 264 264 263 261 259 257 257 257 257 257 257 257 256 256 255 254 254 255 255 256 257 258 259 259 260
259 259 259 258 258 259 259 260 260 260 261 261 262 262 262 263 263 263 263 263 263 262 261 259 258 257 258 258 257 257 255 255 254 253 253 254 255 256 256 258 259 259 260
259 259 259 259 259 259 260 261 262 262 262 262 262 262 262 262 262 262 262 263 263 262 262 261 259 259 258 258 258 257 256 256 254 253 253 254 255 255 256 258 259 260 260
258 259 259 260 260 260 260 261 262 262 263 263 262 262 262 261 261 261 261 262 262 262 262 262 261 260 259 259 258 257 257 255 254 254 253 254 255 255 256 257 258 259 259
259 259 260 260 260 260 261 261 262 262 262 262 262 262 262 262 261 261 261 261 262 262 262 262 262 262 261 261 259 258 258 255 254 254 254 255 255 256 257 257 258 259 259
259 260 260 260 260 260 261 261 261 261 262 261 261 261 261 261 260 261 261 262 262 262 262 262 263 263 262 261 260 259 258 256 256 256 255 255 256 256 256 257 257 259 259
260 260 260 260 259 260 260 261 261 262 261 261 261 261 261 261 261 261 261 261 261 262 262 263 263 263 263 262 261 259 258 256 257 257 257 256 257 257 257 257 258 259 260
261 261 260 259 259 259 260 261 261 262 261 261 261 261 261 261 261 261 261 261 261 262 262 263 264 264 263 262 262 260 259 258 259 258 257 257 257 258 258 258 259 260 260
261 261 261 260 259 259 260 260 261 261 261 261 261 261 262 262 262 262 262 262 262 262 263 264 264 263 263 262 262 261 260 260 260 259 258 258 257 258 259 260 260 260 261
261 261 261 260 259 258 259 259 260 260 261 261 261 262 263 262 263 263 263 263 264 264 263 263 263 263 262 262 262 261 260 261 260 259 259 259 258 258 259 260 260 261 261
262 261 261 259 258 257 258 259 260 260 260 261 261 262 262 262 262 262 263 263 264 264 264 263 263 262 262 261 261 260 260 260 259 259 258 259 259 259 259 260 261 261 261
Height
5785 5786 5787 5789 5790 5791 5792 5793 5793 5794 5795 5796 5797 5798 5799 5800 5801 5802 5803 5804 5804 5805 5807 5808 5809 5810 5812 5813 5814 5816 5817 5818 5819 5820 5820 5821 5822 5822 5823 5824 5824 5824 5825
5776 5778 5779 5781 5782 5783 5784 5785 5786 5787 5787 5788 5789 5790 5791 5792 5793 5794 5796 5797 5797 5798 5799 5801 5802 5803 5805 5806 5807 5809 5810 5811 5812 5813 5814 5815 5816 5817 5817 5818 5819 5819 5820
5767 5769 5770 5772 5773 5774 5775 5776 5777 5778 5779 5780 5782 5783 5783 5784 5785 5786 5788 5789 5790 5791 5792 5793 5794 5796 5797 5798 5800 5801 5802 5804 5805 5806 5807 5808 5809 5810 5811 5812 5813 5813 5814
5757 5759 5760 5762 5763 5765 5766 5767 5768 5770 5771 5772 5773 5774 5775 5776 5777 5778 5779 5780 5781 5782 5784 5785 5786 5787 5789 5790 5791 5793 5794 5796 5797 5798 5799 5801 5802 5803 5804 5805 5806 5807 5807
5747 5749 5750 5752 5753 5755 5756 5758 5759 5760 5761 5762 5763 5764 5765 5766 5767 5768 5770 5771 5772 5773 5775 5776 5777 5779 5780 5781 5783 5784 5785 5787 5788 5790 5791 5793 5794 5795 5796 5797 5798 5799 5800
5736 5737 5739 5741 5742 5744 5745 5747 5748 5749 5750 5751 5752 5754 5755 5756 5757 5758 5760 5761 5762 5764 5765 5767 5768 5769 5770 5772 5773 5775 5776 5778 5779 5781 5782 5784 5785 5787 5788 5789 5790 5792 5792
5724 5726 5728 5729 5731 5733 5734 5735 5737 5738 5739 5740 5741 5743 5744 5745 5746 5747 5749 5750 5752 5753 5755 5757 5758 5759 5761 5762 5763 5765 5766 5768 5770 5771 5773 5775 5776 5777 5779 5780 5782 5783 5784
5712 5714 5716 5717 5719 5720 5722 5723 5725 5726 5727 5728 5729 5730 5732 5734 5734 5736 5738 5739 5740 5742 5743 5745 5747 5748 5750 5751 5753 5755 5756 5758 5760 5761 5763 5764 5766 5768 5769 5771 5772 5773 5775
5699 5701 5703 5704 5706 5707 5709 5710 5712 5714 5715 5716 5716 5718 5719 5721 5722 5724 5725 5727 5728 5730 5731 5732 5734 5736 5738 5740 5741 5743 5745 5747 5749 5751 5752 5754 5755 5757 5759 5760 5762 5763 5765
5687 5688 5689 5691 5692 5694 5696 5697 5699 5700 5702 5703 5703 5704 5706 5707 5708 5711 5713 5714 5715 5717 5718 5719 5721 5723 5725 5727 5729 5731 5733 5735 5737 5739 5741 5742 5744 5746 5748 5749 5751 5753 5754
5673 5675 5676 5677 5679 5681 5682 5684 5685 5687 5688 5689 5690 5691 5692 5693 5694 5696 5699 5701 5702 5703 5704 5705 5707 5709 5711 5714 5716 5718 5720 5722 5724 5726 5729 5730 5732 5734 5736 5738 5739 5741 5743
5659 5661 5662 5664 5665 5667 5668 5670 5671 5673 5674 5675 5676 5677 5677 5678 5679 5681 5683 5685 5687 5689 5690 5691 5693 5695 5697 5699 5702 5704 5706 5708 5711 5713 5715 5718 5720 5721 5723 5725 5728 5729 5731
5645 5647 5648 5649 5651 5652 5653 5655 5657 5658 5659 5660 5661 5662 5662 5663 5664 5665 5667 5669 5671 5674 5675 5677 5678 5680 5682 5684 5687 5689 5692 5694 5696 5699 5702 5704 5706 5708 5710 5713 5715 5717 5719
5630 5631 5633 5634 5636 5637 5638 5640 5642 5643 5644 5645 5646 5646 5647 5648 5648 5649 5651 5652 5655 5658 5660 5662 5663 5664 5666 5669 5671 5674 5676 5679 5681 5684 5687 5690 5692 5694 5696 5699 5701 5704 5706
5614 5615 5617 5619 5620 5622 5623 5625 5626 5627 5628 5629 5630 5631 5632 5632 5633 5633 5634 5635 5638 5641 5644 5646 5648 5649 5650 5653 5655 5658 5660 5663 5666 5669 5672 5674 5677 5680 5682 5685 5687 5690 5692
5598 5600 5601 5603 5605 5606 5608 5609 5610 5611 5612 5613 5614 5615 5616 5616 5617 5617 5618 5619 5620 5623 5627 5631 5631 5633 5634 5636 5638 5641 5644 5646 5649 5653 5656 5659 5662 5665 5667 5669 5672 5674 5677
5582 5583 5585 5587 5589 5590 5592 5593 5594 5595 5596 5597 5597 5598 5599 5600 5600 5601 5601 5603 5604 5605 5609 5613 5614 5616 5617 5619 5621 5623 5626 5629 5633 5636 5640 5643 5646 5649 5651 5653 5656 5659 5661
5566 5567 5568 5570 5572 5573 5575 5576 5577 5578 5579 5580 5581 5581 5582 5583 5584 5585 5586 5587 5588 5589 5592 5595 5598 5599 5601 5602 5604 5606 5608 5611 5615 5619 5622 5625 5629 5632 5634 5637 5640 5642 5645
5549 5550 5552 5553 5555 5556 5557 5559 5560 5561 5562 5563 5563 5564 5565 5566 5568 5569 5570 5571 5572 5573 5575 5577 5580 5582 5583 5585 5586 5589 5591 5594 5597 5601 5604 5608 5611 5614 5617 5619 5623 5625 5627
5532 5534 5535 5536 5538 5539 5540 5541 5542 5543 5544 5545 5546 5547 5548 5549 5551 5552 5553 5555 5556 5557 5558 5560 5562 5564 5566 5567 5568 5570 5573 5576 5579 5582 5586 5590 5593 5596 5599 5602 5606 5608 5610
5515 5516 5518 5519 5521 5522 5523 5524 5525 5526 5527 5528 5529 5530 5531 5532 5534 5535 5537 5538 5539 5541 5542 5543 5545 5547 5549 5550 5551 5552 5555 5558 5561 5564 5567 5571 5575 5578 5580 5583 5586 5589 5591
5498 5499 5501 5502 5504 5505 5506 5507 5507 5509 5510 5511 5512 5513 5514 5516 5517 5518 5520 5521 5523 5524 5525 5527 5528 5530 5531 5532 5533 5535 5538 5541 5545 5548 5549 5553 5555 5558 5562 5565 5567 5570 5572
5482 5483 5484 5486 5488 5489 5490 5490 5491 5492 5494 5495 5496 5497 5498 5499 5500 5501 5503 5504 5506 5507 5509 5511 5512 5513 5514 5516 5517 5519 5520 5523 5527 5530 5531 5536 5537 5540 5543 5546 5548 5550 5553
5466 5467 5468 5469 5471 5473 5474 5475 5475 5477 5478 5480 5481 5481 5483 5483 5484 5485 5486 5487 5489 5491 5492 5494 5496 5497 5497 5498 5500 5501 5503 5506 5509 5512 5513 5517 5520 5522 5525 5527 5529 5531 5533
5450 5451 5452 5453 5455 5457 5458 5459 5460 5462 5463 5465 5466 5466 5467 5468 5469 5469 5470 5472 5473 5474 5474 5475 5477 5479 5480 5481 5482 5484 5486 5489 5492 5495 5496 5499 5502 5504 5506 5509 5511 5512 5514
5434 5435 5437 5438 5440 5442 5443 5444 5445 5447 5449 5450 5451 5452 5452 5452 5453 5452 5453 5455 5456 5458 5458 5459 5460 5461 5463 5464 5465 5467 5470 5472 5475 5478 5480 5481 5483 5485 5489 5492 5493 5494 5495